Nashville, TN

2:08 PM CST on February 14, 2016 (GMT -0600)
Nashville International

Weather History for KBNA - October, 2011

Change the Weather History Date:

Tuesday, October 11, 2011

  Actual Average Record
Temperature  
Mean Temperature 63 °F 62 °F  
Max Temperature 68 °F 73 °F 89 °F (1879)
Min Temperature 58 °F 50 °F 29 °F (1906)
Degree Days  
Heating Degree Days 2    
Month to date heating degree days 36  
Since 1 July heating degree days 68  
Cooling Degree Days 0    
Month to date cooling degree days 13  
Year to date cooling degree days 1908  
Growing Degree Days 14 (Base 50)    
Moisture  
Dew Point 58 °F    
Average Humidity 83    
Maximum Humidity 97    
Minimum Humidity 68    
Precipitation  
Precipitation 0.00 in 0.09 in 1.16 in (1900)
Month to date precipitation 0.00 1.08  
Year to date precipitation 40.81 36.74  
Snow  
Snow 0.00 in 0.00 in 0.00 in (2002)
Month to date snowfall 0.0 0.0  
Since 1 July snowfall 0.0 0.0  
Since 1 September snowfall 0.0 0.0  
Snow Depth 0.00 in    
Sea Level Pressure  
Sea Level Pressure 29.97 in    
Wind  
Wind Speed 4 mph (SSE)    
Max Wind Speed 8 mph    
Max Gust Speed 10 mph    
Visibility 10 miles    
Events      
T = Trace of Precipitation, MM = Missing Value Source: NWS Daily Summary

Daily Weather History Graph

Daily Weather History Graph

Search for Another Location

Airport or City:

Trip Planner

Search our weather history database for the weather conditions in past years. The results will help you decide how hot, cold, wet, or windy it might be!

Date:

Astronomy

Oct. 11, 2011 Rise Set
Actual Time 6:49 AM CDT 6:16 PM CDT
Civil Twilight 6:24 AM CDT 6:42 PM CDT
Nautical Twilight 5:54 AM CDT 7:11 PM CDT
Astronomical Twilight 5:24 AM CDT 7:41 PM CDT
Moon 5:49 PM CDT (10/11) 6:26 AM CDT (10/11)
Length of Visible Light 12h 18m
Length of Day
11h 26m
Full, 100% of the Moon is Illuminated
Oct 11
Full
Oct 11
Full
Oct 19
Last Quarter
Oct 26
New
Nov 2
First Quarter

Hourly Weather History & Observations

Time (CDT) Temp. Dew Point Humidity Pressure Visibility Wind Dir Wind Speed Gust Speed Precip Events Conditions
12:53 AM 61.0 °F 57.0 °F 87% 29.99 in 10.0 mi Calm Calm - N/A   Scattered Clouds
1:53 AM 59.0 °F 55.9 °F 90% 29.99 in 10.0 mi South 3.5 mph - N/A   Partly Cloudy
2:53 AM 60.1 °F 55.9 °F 86% 29.99 in 10.0 mi Calm Calm - N/A   Overcast
3:53 AM 62.1 °F 57.9 °F 86% 29.98 in 10.0 mi Calm Calm - N/A   Overcast
5:53 AM 62.1 °F 57.0 °F 84% 30.01 in 10.0 mi SE 5.8 mph - N/A   Scattered Clouds
6:53 AM 61.0 °F 57.0 °F 87% 30.01 in 10.0 mi SSW 3.5 mph - N/A   Mostly Cloudy
7:53 AM 63.0 °F 57.0 °F 81% 30.02 in 10.0 mi Calm Calm - N/A   Mostly Cloudy
8:53 AM 64.4 °F 57.2 °F 77% 30.03 in 10.0 mi SE 5.8 mph - N/A   Mostly Cloudy
9:53 AM 66.0 °F 57.9 °F 75% 30.02 in 10.0 mi SE 5.8 mph - N/A   Mostly Cloudy
10:53 AM 66.2 °F 59.0 °F 78% 30.02 in 10.0 mi SE 5.8 mph - N/A   Mostly Cloudy
11:53 AM 66.9 °F 59.0 °F 76% 30.00 in 10.0 mi South 4.6 mph - N/A   Mostly Cloudy
12:53 PM 66.9 °F 59.0 °F 76% 29.98 in 10.0 mi SE 4.6 mph - N/A   Mostly Cloudy
1:53 PM 68.0 °F 59.0 °F 73% 29.96 in 10.0 mi South 5.8 mph - N/A   Overcast
2:53 PM 68.0 °F 59.0 °F 73% 29.95 in 10.0 mi South 5.8 mph - N/A   Overcast
3:53 PM 68.0 °F 59.0 °F 73% 29.94 in 10.0 mi SSE 5.8 mph - N/A   Overcast
4:53 PM 68.0 °F 57.0 °F 68% 29.93 in 10.0 mi Calm Calm - N/A   Overcast
5:53 PM 66.9 °F 57.9 °F 73% 29.92 in 10.0 mi East 5.8 mph - N/A   Overcast
6:53 PM 66.0 °F 57.0 °F 73% 29.93 in 10.0 mi SSE 4.6 mph - N/A   Overcast
7:53 PM 64.4 °F 57.2 °F 77% 29.94 in 10.0 mi SE 4.6 mph - N/A   Overcast
8:53 PM 63.0 °F 59.0 °F 87% 29.93 in 10.0 mi ESE 4.6 mph - N/A   Mostly Cloudy
9:53 PM 62.1 °F 59.0 °F 90% 29.92 in 10.0 mi SSE 3.5 mph - N/A   Mostly Cloudy
10:53 PM 61.0 °F 59.0 °F 93% 29.91 in 10.0 mi East 3.5 mph - N/A   Mostly Cloudy
11:53 PM 61.0 °F 59.0 °F 93% 29.90 in 9.0 mi Calm Calm - N/A   Scattered Clouds